G4KVI Weather Reports


time (UTC)temp
F
wind
direction
speed
knots
gust
knots
rain 1hr
in
rain 24hr
in
rain mn
in
humidity
%
barometer
mb
20260507135504 58 145 3.5 8.7 0.00 0.00 0.00 58 1017.0
20260507135004 57 149 3.5 8.7 0.00 0.00 0.00 59 1017.1
20260507134504 57 162 3.5 8.7 0.00 0.00 0.00 59 1017.2
20260507134004 57 164 3.5 8.7 0.00 0.00 0.00 58 1017.1
20260507133504 58 148 3.5 8.7 0.00 0.00 0.00 59 1017.2
20260507133004 58 147 3.5 8.7 0.00 0.00 0.00 59 1017.1
20260507132504 58 155 3.5 8.7 0.00 0.00 0.00 58 1017.0
20260507132004 58 159 3.5 7.8 0.00 0.00 0.00 57 1017.2
20260507131504 59 161 3.5 8.7 0.00 0.00 0.00 57 1017.3
20260507131004 59 162 2.6 8.7 0.00 0.00 0.00 57 1017.0
20260507130504 58 172 2.6 7.0 0.00 0.00 0.00 57 1017.0
20260507130004 57 180 2.6 7.0 0.00 0.00 0.00 58 1017.3
20260507125504 58 207 1.7 7.0 0.00 0.00 0.00 58 1017.1
20260507125004 57 202 0.9 7.0 0.00 0.00 0.00 58 1017.1
20260507124504 57 149 0.9 2.6 0.00 0.00 0.00 58 1017.1
20260507124004 57 154 0.9 2.6 0.00 0.00 0.00 58 1017.2
20260507123504 57 152 1.7 2.6 0.00 0.00 0.00 57 1017.2
20260507123004 58 150 0.9 5.2 0.00 0.00 0.00 56 1017.2
20260507122504 58 156 1.7 6.1 0.00 0.00 0.00 57 1017.2
20260507122004 58 160 2.6 6.1 0.00 0.00 0.00 55 1017.3
20260507121504 58 158 2.6 7.0 0.00 0.00 0.00 55 1017.2
20260507121004 58 153 2.6 7.0 0.00 0.00 0.00 56 1017.3
20260507120504 58 158 2.6 7.0 0.00 0.00 0.00 55 1017.3
20260507120004 59 177 0.9 6.1 0.00 0.00 0.00 54 1017.3
20260507115504 59 187 0.9 3.5 0.00 0.00 0.00 52 1017.6
20260507115004 59 179 1.7 6.1 0.00 0.00 0.00 52 1017.4
20260507114504 59 178 1.7 6.1 0.00 0.00 0.00 52 1017.5
20260507114004 59 162 1.7 6.1 0.00 0.00 0.00 53 1017.7
20260507113504 59 160 1.7 6.1 0.00 0.00 0.00 52 1017.4
20260507113004 59 171 1.7 6.1 0.00 0.00 0.00 52 1017.4
20260507112504 59 175 1.7 6.1 0.00 0.00 0.00 50 1017.4
20260507112004 60 162 0.9 5.2 0.00 0.00 0.00 52 1017.2
20260507111504 60 155 1.7 6.1 0.00 0.00 0.00 52 1017.3
20260507111004 59 166 1.7 7.8 0.00 0.00 0.00 49 1017.3
20260507110504 59 166 2.6 7.8 0.00 0.00 0.00 51 1017.5
20260507110004 58 153 2.6 7.0 0.00 0.00 0.00 52 1017.5
20260507105504 58 154 2.6 6.1 0.00 0.00 0.00 50 1017.5
20260507105004 59 159 1.7 6.1 0.00 0.00 0.00 48 1017.4
20260507104504 59 163 2.6 6.1 0.00 0.00 0.00 50 1017.6
20260507104004 61 170 2.6 6.1 0.00 0.00 0.00 47 1017.6
20260507103504 61 156 2.6 7.0 0.00 0.00 0.00 48 1017.6
20260507103004 60 147 3.5 7.0 0.00 0.00 0.00 51 1017.5
20260507102504 60 147 4.3 7.8 0.00 0.00 0.00 49 1017.5
20260507102004 59 131 4.3 7.8 0.00 0.00 0.00 52 1017.6
20260507101504 59 134 4.3 7.8 0.00 0.00 0.00 54 1017.5
20260507101004 59 146 3.5 7.0 0.00 0.00 0.00 56 1017.8
20260507100504 59 144 2.6 7.0 0.00 0.00 0.00 57 1017.8
20260507100004 59 159 2.6 8.7 0.00 0.00 0.00 55 1017.7
20260507095504 59 151 3.5 8.7 0.00 0.00 0.00 57 1017.6
20260507095004 57 134 3.5 7.8 0.00 0.00 0.00 60 1017.8
20260507094504 56 133 3.5 7.8 0.00 0.00 0.00 59 1017.7
20260507094004 57 147 3.5 7.0 0.00 0.00 0.00 60 1017.5
20260507093504 56 155 3.5 7.0 0.00 0.00 0.00 62 1017.5
20260507093004 57 158 2.6 6.1 0.00 0.00 0.00 60 1017.6
20260507092504 56 158 2.6 7.8 0.00 0.00 0.00 62 1017.4
20260507092004 56 141 2.6 7.8 0.00 0.00 0.00 62 1017.5
20260507091504 55 127 2.6 6.1 0.00 0.00 0.00 67 1017.7
20260507091004 54 113 2.6 6.1 0.00 0.00 0.00 68 1017.9
20260507090504 54 105 2.6 6.1 0.00 0.00 0.00 72 1017.7
20260507090005 54 106 2.6 7.0 0.00 0.00 0.00 72 1017.7
20260507085504 53 104 3.5 7.0 0.00 0.00 0.00 73 1018.0
20260507085004 53 107 2.6 5.2 0.00 0.00 0.00 73 1017.7
20260507084504 53 104 3.5 6.1 0.00 0.00 0.00 74 1017.8
20260507084004 52 106 2.6 6.1 0.00 0.00 0.00 74 1017.8
20260507083504 52 113 2.6 5.2 0.00 0.00 0.00 75 1017.8
20260507083004 52 125 2.6 5.2 0.00 0.00 0.00 75 1018.0
20260507082504 52 129 2.6 6.1 0.00 0.00 0.00 75 1017.9
20260507082004 51 116 2.6 6.1 0.00 0.00 0.00 75 1017.9
20260507081503 51 108 2.6 5.2 0.00 0.00 0.00 77 1017.6
20260507081003 51 105 2.6 5.2 0.00 0.00 0.00 76 1017.8
20260507080503 50 111 1.7 5.2 0.00 0.00 0.00 77 1017.9
20260507080004 50 117 2.6 6.1 0.00 0.00 0.00 78 1018.0
20260507075504 49 123 2.6 6.1 0.00 0.00 0.00 78 1017.8
20260507075004 49 125 1.7 5.2 0.00 0.00 0.00 79 1017.9
20260507074504 49 121 1.7 5.2 0.00 0.00 0.00 79 1017.9
20260507074004 49 115 1.7 5.2 0.00 0.00 0.00 79 1017.9
20260507073503 48 121 2.6 6.1 0.00 0.00 0.00 79 1017.7
20260507073004 48 125 2.6 6.1 0.00 0.00 0.00 80 1017.7
20260507072503 47 124 1.7 5.2 0.00 0.00 0.00 80 1017.7
20260507072004 47 117 1.7 3.5 0.00 0.00 0.00 81 1017.7
20260507071504 47 124 0.9 2.6 0.00 0.00 0.00 82 1017.7
20260507071003 47 133 0.9 1.7 0.00 0.00 0.00 83 1017.5
20260507070504 46 145 1.7 2.6 0.00 0.00 0.00 83 1017.6
20260507070007 46 150 1.7 2.6 0.00 0.00 0.00 83 1017.7
20260507065503 46 121 0.9 2.6 0.00 0.00 0.00 83 1017.7
20260507065004 46 101 1.7 3.5 0.00 0.00 0.00 83 1017.7
20260507064504 46 102 1.7 3.5 0.00 0.00 0.00 84 1017.6
20260507064004 45 117 1.7 5.2 0.00 0.00 0.00 84 1017.5
20260507063503 45 108 2.6 6.1 0.00 0.00 0.00 84 1017.6
20260507063004 45 101 1.7 6.1 0.00 0.00 0.00 84 1017.5
20260507062503 45 108 1.7 2.6 0.00 0.00 0.00 85 1017.3
20260507062003 45 109 0.9 2.6 0.00 0.00 0.00 85 1017.6
20260507061503 45 94 0.9 1.7 0.00 0.00 0.00 85 1017.5
20260507061004 45 97 0.9 1.7 0.00 0.00 0.00 85 1017.2
20260507060503 45 109 0.9 2.6 0.00 0.00 0.00 85 1017.6
20260507060004 44 115 1.7 2.6 0.00 0.00 0.00 85 1017.2
20260507055503 44 125 1.7 2.6 0.00 0.00 0.00 85 1017.3
20260507055004 45 139 0.9 2.6 0.00 0.00 0.00 85 1017.4
20260507054504 44 120 1.7 5.2 0.00 0.00 0.00 85 1017.5
20260507054003 44 110 1.7 5.2 0.00 0.00 0.00 85 1017.2
20260507053503 44 107 1.7 5.2 0.00 0.00 0.00 85 1017.2
20260507053004 44 105 0.9 1.7 0.00 0.00 0.00 84 1017.2
20260507052503 45 101 0.9 2.6 0.00 0.00 0.00 84 1017.3
20260507052003 44 105 1.7 2.6 0.00 0.00 0.00 85 1017.1
20260507051503 44 115 1.7 2.6 0.00 0.00 0.00 85 1017.3
20260507051003 44 111 1.7 2.6 0.00 0.00 0.00 85 1017.4
20260507050503 44 105 1.7 2.6 0.00 0.00 0.00 85 1017.6
20260507050003 44 103 1.7 2.6 0.00 0.00 0.00 84 1017.1
20260507045503 44 106 1.7 3.5 0.00 0.00 0.00 84 1017.1
20260507045003 44 108 1.7 3.5 0.00 0.00 0.00 84 1017.0
20260507044503 44 107 1.7 2.6 0.00 0.00 0.00 84 1017.2
20260507044003 44 106 1.7 3.5 0.00 0.00 0.00 84 1017.1
20260507043503 44 105 1.7 3.5 0.00 0.00 0.00 84 1017.0
20260507043003 44 111 1.7 3.5 0.00 0.00 0.00 84 1017.0
20260507042503 44 117 0.9 2.6 0.00 0.00 0.00 84 1016.9
20260507042003 44 124 0.9 2.6 0.00 0.00 0.00 84 1017.1
20260507041503 44 123 1.7 2.6 0.00 0.00 0.00 84 1016.9
20260507041003 44 122 0.9 2.6 0.00 0.00 0.00 84 1016.9
20260507040503 44 122 0.9 2.6 0.00 0.00 0.00 84 1017.3
20260507040004 44 103 0.9 2.6 0.00 0.00 0.00 84 1017.1
20260507035504 44 101 1.7 2.6 0.00 0.00 0.00 84 1017.4
20260507035003 44 103 1.7 3.5 0.00 0.00 0.00 83 1017.3
20260507034503 44 105 1.7 3.5 0.00 0.00 0.00 83 1017.2
20260507034003 44 105 1.7 3.5 0.00 0.00 0.00 83 1017.1
20260507033503 44 103 1.7 2.6 0.00 0.00 0.00 83 1017.3
20260507033003 44 103 1.7 2.6 0.00 0.00 0.00 83 1017.2
20260507032504 45 104 1.7 2.6 0.00 0.00 0.00 82 1017.3
20260507032003 45 103 0.9 2.6 0.00 0.00 0.00 82 1017.1
20260507031503 45 108 0.9 2.6 0.00 0.00 0.00 82 1017.2
20260507031003 45 112 1.7 2.6 0.00 0.00 0.00 82 1017.1
20260507030503 45 114 1.7 2.6 0.00 0.00 0.00 81 1017.3
20260507030003 45 114 1.7 2.6 0.00 0.00 0.00 81 1017.2
20260507025503 45 110 0.9 2.6 0.00 0.00 0.00 81 1017.0
20260507025003 45 118 0.9 1.7 0.00 0.00 0.00 81 1017.0
20260507024503 45 116 0.9 2.6 0.00 0.00 0.00 81 1017.1
20260507024003 45 105 1.7 2.6 0.00 0.00 0.00 81 1016.9
20260507023503 45 103 1.7 2.6 0.00 0.00 0.00 80 1016.9
20260507023003 45 103 1.7 2.6 0.00 0.00 0.00 80 1017.0
20260507022503 45 102 1.7 2.6 0.00 0.00 0.00 80 1017.1
20260507022003 45 105 1.7 2.6 0.00 0.00 0.00 80 1017.1
20260507021503 45 107 1.7 2.6 0.00 0.00 0.00 80 1017.2
20260507021003 45 107 1.7 1.7 0.00 0.00 0.00 79 1017.0
20260507020503 45 105 1.7 2.6 0.00 0.00 0.00 79 1017.0
20260507020003 45 107 2.6 3.5 0.00 0.00 0.00 79 1017.0
20260507015503 45 109 1.7 3.5 0.00 0.00 0.00 78 1017.1
20260507015004 45 105 2.6 5.2 0.00 0.00 0.00 78 1017.1
20260507014503 46 104 2.6 6.1 0.00 0.00 0.00 78 1017.2
20260507014003 46 105 2.6 6.1 0.00 0.00 0.00 78 1017.1
20260507013503 46 102 2.6 6.1 0.00 0.00 0.00 78 1017.1
20260507013003 46 102 1.7 3.5 0.00 0.00 0.00 78 1017.0
20260507012503 46 104 1.7 3.5 0.00 0.00 0.00 77 1017.1
20260507012003 46 106 1.7 2.6 0.00 0.00 0.00 77 1017.3
20260507011503 46 106 1.7 3.5 0.00 0.00 0.00 77 1017.1
20260507011003 46 102 1.7 3.5 0.00 0.00 0.00 77 1017.0
20260507010503 46 104 1.7 3.5 0.00 0.00 0.00 77 1017.0
20260507010003 46 107 1.7 3.5 0.00 0.00 0.00 77 1017.1
20260507005503 46 109 1.7 2.6 0.00 0.00 0.00 77 1017.1
20260507005003 46 109 1.7 2.6 0.00 0.00 0.00 77 1017.0
20260507004503 46 105 1.7 3.5 0.00 0.00 0.00 77 1017.0
20260507004003 46 109 2.6 5.2 0.00 0.00 0.00 77 1017.0
20260507003503 46 109 1.7 5.2 0.00 0.00 0.00 76 1017.1
20260507003003 46 108 1.7 3.5 0.00 0.00 0.00 76 1017.4
20260507002503 46 109 0.9 1.7 0.00 0.00 0.00 76 1017.2
20260507002003 45 104 0.9 0.9 0.00 0.00 0.00 75 1017.2
20260507001503 45 104 0.0 0.9 0.00 0.00 0.00 75 1017.3
20260507001003 45 105 0.9 2.6 0.00 0.00 0.00 76 1017.4
20260507000503 45 110 0.9 2.6 0.00 0.00 0.00 76 1017.2
20260507000003 45 115 0.9 1.7 0.00 0.00 0.00 77 1017.2
20260506235503 44 104 0.0 0.9 0.00 0.00 0.00 79 1017.3
20260506235003 43 101 0.0 0.9 0.00 0.00 0.00 79 1017.1
20260506234503 43 0 0.0 0.0 0.00 0.00 0.00 80 1017.2
20260506234003 43 0 0.0 0.0 0.00 0.00 0.00 79 1017.2
20260506233503 43 0 0.0 0.0 0.00 0.00 0.00 79 1017.3
20260506233003 43 0 0.0 0.0 0.00 0.00 0.00 79 1017.3
20260506232503 43 0 0.0 0.0 0.00 0.00 0.00 79 1017.0
20260506232003 43 0 0.0 0.0 0.00 0.00 0.00 79 1017.4
20260506231503 43 0 0.0 0.0 0.00 0.00 0.00 79 1017.2
20260506231003 43 0 0.0 0.0 0.00 0.00 0.00 78 1017.2
20260506230503 44 0 0.0 0.0 0.00 0.00 0.00 78 1017.0
20260506230003 44 99 0.0 0.9 0.00 0.00 0.00 78 1017.2
20260506225503 44 99 0.0 0.9 0.00 0.00 0.00 77 1017.3
20260506225003 43 99 0.0 0.9 0.00 0.00 0.00 78 1016.9
20260506224503 43 99 0.0 0.9 0.00 0.00 0.00 79 1016.9
20260506224003 43 0 0.0 0.9 0.00 0.00 0.00 79 1017.2
20260506223003 42 0 0.0 0.0 0.00 0.00 0.00 80 1017.0
20260506222503 42 0 0.0 0.0 0.00 0.00 0.00 79 1017.0
20260506222003 42 0 0.0 0.0 0.00 0.00 0.00 79 1017.0
20260506221504 42 0 0.0 0.0 0.00 0.00 0.00 78 1016.8
20260506221003 43 0 0.0 0.0 0.00 0.00 0.00 78 1016.8
20260506220503 43 0 0.0 0.0 0.00 0.00 0.00 78 1016.7
20260506220004 43 0 0.0 0.0 0.00 0.00 0.00 77 1016.6
20260506215504 43 0 0.0 0.0 0.00 0.00 0.00 76 1016.9
20260506215004 44 99 0.0 0.9 0.00 0.00 0.00 75 1016.8
20260506214504 44 99 0.0 0.9 0.00 0.00 0.00 75 1016.9
20260506214004 44 0 0.0 0.0 0.00 0.00 0.00 75 1016.8
20260506213504 44 0 0.0 0.0 0.00 0.00 0.00 74 1016.9
20260506213004 45 0 0.0 0.0 0.00 0.00 0.00 74 1016.6
20260506212504 45 0 0.0 0.0 0.00 0.00 0.00 73 1016.9
20260506212004 45 0 0.0 0.0 0.00 0.00 0.00 73 1016.8
20260506211504 45 0 0.0 0.0 0.00 0.00 0.00 72 1016.8
20260506211004 46 0 0.0 0.0 0.00 0.00 0.00 72 1016.7
20260506210504 46 0 0.0 0.0 0.00 0.00 0.00 72 1016.5
20260506210004 46 0 0.0 0.0 0.00 0.00 0.00 71 1016.6
20260506205504 46 0 0.0 0.0 0.00 0.00 0.00 71 1016.5
20260506205004 46 0 0.0 0.0 0.00 0.00 0.00 70 1016.6
20260506204504 47 0 0.0 0.0 0.00 0.00 0.00 70 1016.4
20260506204004 47 0 0.0 0.0 0.00 0.00 0.00 68 1016.3
20260506203504 47 0 0.0 0.0 0.00 0.00 0.00 68 1016.5
20260506203004 48 0 0.0 0.0 0.00 0.00 0.00 66 1016.4
20260506202504 49 0 0.0 0.0 0.00 0.00 0.00 65 1016.4
20260506202004 49 0 0.0 0.0 0.00 0.00 0.00 64 1016.4
20260506201504 50 0 0.0 0.0 0.00 0.00 0.00 61 1016.3
20260506201004 51 0 0.0 0.0 0.00 0.00 0.00 59 1016.2
20260506200504 52 99 0.0 0.9 0.00 0.00 0.00 57 1016.1
20260506200004 52 98 0.9 1.7 0.00 0.00 0.00 55 1015.9
20260506195503 53 97 0.9 1.7 0.00 0.00 0.00 53 1016.1
20260506195003 53 91 0.9 1.7 0.00 0.00 0.00 52 1016.0
20260506194504 53 90 0.9 1.7 0.00 0.00 0.00 51 1015.8
20260506194003 54 93 0.9 1.7 0.00 0.00 0.00 50 1015.8
20260506193504 54 94 0.9 2.6 0.00 0.00 0.00 50 1015.8
20260506193004 54 96 1.7 2.6 0.00 0.00 0.00 50 1015.7
20260506192504 54 95 1.7 3.5 0.00 0.00 0.00 50 1015.8
20260506192004 54 88 0.9 3.5 0.00 0.00 0.00 49 1015.9
20260506191504 54 88 0.9 2.6 0.00 0.00 0.00 49 1015.7
20260506191003 54 94 1.7 2.6 0.00 0.00 0.00 49 1015.8
20260506190504 55 98 1.7 3.5 0.00 0.00 0.00 49 1015.9
20260506190004 55 94 1.7 3.5 0.00 0.00 0.00 49 1015.7
20260506185504 55 90 1.7 5.2 0.00 0.00 0.00 48 1015.9
20260506185003 55 94 1.7 5.2 0.00 0.00 0.00 48 1015.7
20260506184504 55 99 1.7 3.5 0.00 0.00 0.00 47 1015.8
20260506184003 56 96 1.7 3.5 0.00 0.00 0.00 47 1015.7
20260506183504 56 86 0.9 2.6 0.00 0.00 0.00 48 1015.7
20260506183004 56 86 0.9 2.6 0.00 0.00 0.00 46 1015.7
20260506182503 56 88 0.9 3.5 0.00 0.00 0.00 46 1015.8
20260506182003 56 90 1.7 3.5 0.00 0.00 0.00 48 1015.6
20260506181503 56 88 1.7 2.6 0.00 0.00 0.00 46 1015.7
20260506181003 56 92 1.7 5.2 0.00 0.00 0.00 46 1015.5
20260506180504 56 85 2.6 5.2 0.00 0.00 0.00 47 1015.7
20260506180005 56 80 1.7 3.5 0.00 0.00 0.00 46 1015.5
20260506175504 56 83 1.7 3.5 0.00 0.00 0.00 46 1015.4
20260506175004 56 75 1.7 3.5 0.00 0.00 0.00 46 1015.5
20260506174504 56 77 2.6 3.5 0.00 0.00 0.00 46 1015.4
20260506174004 56 89 2.6 7.0 0.00 0.00 0.00 45 1015.4
20260506173504 56 101 2.6 7.0 0.00 0.00 0.00 46 1015.5
20260506173004 56 95 1.7 3.5 0.00 0.00 0.00 47 1015.4
20260506172504 56 78 2.6 6.1 0.00 0.00 0.00 46 1015.5
20260506172004 56 78 2.6 6.1 0.00 0.00 0.00 46 1015.4
20260506171504 56 88 2.6 6.1 0.00 0.00 0.00 46 1015.4
20260506171003 57 91 2.6 6.1 0.00 0.00 0.00 46 1015.3
20260506170503 57 85 2.6 5.2 0.00 0.00 0.00 45 1015.1
20260506170004 57 55 0.9 3.5 0.00 0.00 0.00 46 1015.2
20260506165504 57 40 0.9 2.6 0.00 0.00 0.00 45 1015.1
20260506165003 57 77 1.7 3.5 0.00 0.00 0.00 45 1015.2
20260506164503 57 75 1.7 3.5 0.00 0.00 0.00 46 1015.2
20260506164003 58 59 1.7 3.5 0.00 0.00 0.00 44 1015.4
20260506163503 59 53 0.9 3.5 0.00 0.00 0.00 43 1015.2
20260506163004 59 82 0.9 2.6 0.00 0.00 0.00 41 1015.2
20260506162503 58 86 1.7 3.5 0.00 0.00 0.00 43 1015.4
20260506162003 57 69 1.7 3.5 0.00 0.00 0.00 45 1015.2
20260506161503 57 69 1.7 5.2 0.00 0.00 0.00 44 1015.4
20260506161003 57 72 1.7 5.2 0.00 0.00 0.00 44 1015.4
20260506160503 57 82 1.7 7.0 0.00 0.00 0.00 45 1015.4
20260506160003 57 74 2.6 7.0 0.00 0.00 0.00 46 1015.6
20260506155503 57 63 2.6 6.1 0.00 0.00 0.00 45 1015.2
20260506155003 58 87 1.7 5.2 0.00 0.00 0.00 45 1015.2
20260506154503 58 106 2.6 6.1 0.00 0.00 0.00 44 1015.4
20260506154003 58 103 2.6 6.1 0.00 0.00 0.00 45 1015.2
20260506153503 58 78 1.7 5.2 0.00 0.00 0.00 44 1015.4
20260506153003 58 55 1.7 5.2 0.00 0.00 0.00 44 1015.4
20260506152503 58 68 2.6 6.1 0.00 0.00 0.00 44 1015.3
20260506152003 58 63 2.6 6.1 0.00 0.00 0.00 44 1015.5
20260506151503 58 44 1.7 5.2 0.00 0.00 0.00 42 1015.4
20260506151003 58 48 1.7 5.2 0.00 0.00 0.00 44 1015.4
20260506150504 57 53 1.7 5.2 0.00 0.00 0.00 44 1015.6
20260506150003 58 59 1.7 6.1 0.00 0.00 0.00 44 1015.5
20260506145503 58 73 1.7 6.1 0.00 0.00 0.00 44 1015.7
20260506145003 58 84 2.6 7.0 0.00 0.00 0.00 43 1015.5
20260506144503 58 99 3.5 7.0 0.00 0.00 0.00 43 1015.6
20260506144003 59 104 2.6 6.1 0.00 0.00 0.00 43 1015.6
20260506143503 58 42 1.7 5.2 0.00 0.00 0.00 42 1015.7
20260506143003 59 315 2.6 6.1 0.00 0.00 0.00 42 1015.6
20260506142503 58 311 2.6 6.1 0.00 0.00 0.00 42 1015.7
20260506142003 58 322 1.7 6.1 0.00 0.00 0.00 43 1015.8
20260506141503 57 29 0.9 3.5 0.00 0.00 0.00 43 1015.9
20260506141003 57 62 2.6 5.2 0.00 0.00 0.00 44 1016.0
20260506140503 56 83 2.6 5.2 0.00 0.00 0.00 46 1015.7
20260506140003 56 84 3.5 8.7 0.00 0.00 0.00 45 1015.9